{"data":{"norad_id":64820,"epoch":"2026-05-25T04:49:39.551808Z","epoch_age_seconds":60808,"freshness":"FRESH","line1":"1 64820U 25151E   26145.20115222  .00001102  00000+0  17355-3 0  9994","line2":"2 64820  51.9000 324.7429 0000734 120.8221 239.2813 14.79935953 47787","mean_motion":14.79935953,"eccentricity":7.34e-5,"inclination_deg":51.9,"raan_deg":324.7429,"arg_perigee_deg":120.8221,"mean_anomaly_deg":239.2813,"bstar":0.00017355,"rev_number":4778,"period_min":97.301508020057,"perigee_km":629.01194481449,"apogee_km":630.04066978801,"semimajor_km":7007.6633073012,"source":"CELESTRAK","updated_at":"2026-05-25T13:38:04.822376Z"}}